| time (UTC) | temp F | wind direction | speed MPH | gust MPH | rain 1hr in | rain 24hr in | rain mn in | humidity % | barometer mb |
| 20260906115619 | 56 | 0.0 | 0.0 | 0.01 | 0.52 | 0.42 | 96 | 993.9 | |
| 20260906114620 | 56 | 0.0 | 0.0 | 0.01 | 0.52 | 0.42 | 96 | 993.9 | |
| 20260906113620 | 56 | 0.0 | 0.0 | 0.01 | 0.52 | 0.42 | 96 | 993.6 | |
| 20260906112620 | 56 | 0.0 | 0.0 | 0.02 | 0.52 | 0.42 | 96 | 993.6 | |
| 20260906111620 | 56 | 0.0 | 0.0 | 0.02 | 0.52 | 0.42 | 96 | 993.5 | |
| 20260906110625 | 56 | 0.0 | 0.0 | 0.02 | 0.52 | 0.42 | 96 | 993.5 | |
| 20260906105620 | 56 | 0.0 | 0.0 | 0.02 | 0.51 | 0.41 | 96 | 993.3 | |
| 20260906104620 | 56 | 0.0 | 0.0 | 0.03 | 0.51 | 0.41 | 96 | 993.3 | |
| 20260906103620 | 56 | 0.0 | 2.0 | 0.08 | 0.51 | 0.41 | 96 | 993.2 | |
| 20260906102620 | 56 | 68 | 1.0 | 3.0 | 0.08 | 0.50 | 0.40 | 96 | 993.1 |
| 20260906101619 | 56 | 0.0 | 0.0 | 0.09 | 0.50 | 0.40 | 96 | 993.3 | |
| 20260906100619 | 56 | 0.0 | 0.0 | 0.10 | 0.50 | 0.40 | 96 | 993.2 | |
| 20260906095620 | 56 | 0.0 | 0.0 | 0.10 | 0.49 | 0.39 | 96 | 993.1 | |
| 20260906094619 | 56 | 0.0 | 0.0 | 0.10 | 0.48 | 0.38 | 96 | 993.0 | |
| 20260906093619 | 56 | 0.0 | 0.0 | 0.06 | 0.43 | 0.33 | 96 | 992.9 | |
| 20260906092619 | 56 | 0.0 | 0.0 | 0.05 | 0.42 | 0.32 | 96 | 992.8 | |
| 20260906091620 | 56 | 0.0 | 0.0 | 0.04 | 0.41 | 0.31 | 96 | 992.5 | |
| 20260906090620 | 56 | 0.0 | 0.0 | 0.03 | 0.40 | 0.30 | 96 | 992.5 | |
| 20260906085619 | 56 | 0.0 | 0.0 | 0.03 | 0.39 | 0.29 | 96 | 992.5 | |
| 20260906084619 | 56 | 0.0 | 0.0 | 0.03 | 0.38 | 0.28 | 96 | 992.4 | |
| 20260906083621 | 56 | 0.0 | 0.0 | 0.04 | 0.37 | 0.27 | 96 | 992.3 | |
| 20260906082619 | 56 | 0.0 | 0.0 | 0.07 | 0.37 | 0.27 | 96 | 992.4 | |
| 20260906081621 | 56 | 0.0 | 0.0 | 0.13 | 0.37 | 0.27 | 96 | 992.3 | |
| 20260906080621 | 56 | 0.0 | 0.0 | 0.20 | 0.37 | 0.27 | 96 | 992.4 | |
| 20260906075618 | 56 | 0.0 | 0.0 | 0.22 | 0.36 | 0.26 | 96 | 992.3 | |
| 20260906074619 | 57 | 0.0 | 0.0 | 0.23 | 0.35 | 0.25 | 95 | 992.4 | |
| 20260906073620 | 57 | 45 | 1.0 | 2.0 | 0.21 | 0.33 | 0.23 | 95 | 992.4 |
| 20260906072619 | 58 | 0.0 | 1.0 | 0.18 | 0.30 | 0.20 | 96 | 992.3 | |
| 20260906071619 | 58 | 0.0 | 0.0 | 0.12 | 0.24 | 0.14 | 96 | 992.4 | |
| 20260906070620 | 58 | 0.0 | 0.0 | 0.05 | 0.17 | 0.07 | 96 | 992.3 | |
| 20260906065620 | 58 | 0.0 | 1.0 | 0.02 | 0.14 | 0.04 | 96 | 992.3 | |
| 20260906064621 | 58 | 0.0 | 3.0 | 0.00 | 0.12 | 0.02 | 96 | 992.3 | |
| 20260906063620 | 58 | 0.0 | 0.0 | 0.00 | 0.12 | 0.02 | 96 | 992.3 | |
| 20260906062619 | 58 | 0.0 | 0.0 | 0.00 | 0.12 | 0.02 | 96 | 992.2 | |
| 20260906061621 | 58 | 248 | 1.0 | 3.0 | 0.01 | 0.12 | 0.02 | 96 | 992.1 |
| 20260906060619 | 58 | 0.0 | 0.0 | 0.01 | 0.12 | 0.02 | 96 | 992.1 | |
| 20260906055619 | 58 | 0.0 | 0.0 | 0.01 | 0.12 | 0.02 | 95 | 992.2 | |
| 20260906054621 | 58 | 0.0 | 0.0 | 0.01 | 0.12 | 0.02 | 95 | 992.2 | |
| 20260906053619 | 58 | 0.0 | 0.0 | 0.01 | 0.12 | 0.02 | 95 | 992.2 | |
| 20260906052622 | 58 | 0.0 | 0.0 | 0.01 | 0.12 | 0.02 | 95 | 992.2 | |
| 20260906051619 | 58 | 0.0 | 0.0 | 0.00 | 0.11 | 0.01 | 95 | 992.2 | |
| 20260906050619 | 58 | 0.0 | 0.0 | 0.00 | 0.11 | 0.01 | 95 | 992.2 | |
| 20260906045619 | 59 | 0.0 | 0.0 | 0.01 | 0.11 | 0.01 | 95 | 992.3 | |
| 20260906044619 | 59 | 0.0 | 0.0 | 0.01 | 0.11 | 0.01 | 95 | 992.3 | |
| 20260906043623 | 59 | 0.0 | 2.0 | 0.01 | 0.11 | 0.01 | 95 | 992.4 | |
| 20260906042619 | 59 | 0.0 | 0.0 | 0.02 | 0.11 | 0.01 | 95 | 992.4 | |
| 20260906041619 | 59 | 180 | 1.0 | 3.0 | 0.02 | 0.11 | 0.01 | 95 | 992.4 |
| 20260906040619 | 59 | 0.0 | 0.0 | 0.03 | 0.11 | 0.01 | 94 | 992.3 | |
| 20260906035620 | 59 | 0.0 | 0.0 | 0.03 | 0.10 | 0.10 | 94 | 992.3 | |
| 20260906034619 | 59 | 0.0 | 0.0 | 0.04 | 0.10 | 0.10 | 94 | 992.4 | |
| 20260906033620 | 59 | 0.0 | 0.0 | 0.06 | 0.10 | 0.10 | 93 | 992.2 | |
| 20260906032619 | 59 | 0.0 | 0.0 | 0.07 | 0.09 | 0.09 | 93 | 992.2 | |
| 20260906031619 | 59 | 0.0 | 0.0 | 0.08 | 0.09 | 0.09 | 92 | 992.0 | |
| 20260906030619 | 59 | 0.0 | 0.0 | 0.08 | 0.08 | 0.08 | 92 | 991.9 | |
| 20260906025619 | 59 | 0.0 | 0.0 | 0.07 | 0.07 | 0.07 | 92 | 991.8 | |
| 20260906024619 | 59 | 0.0 | 0.0 | 0.06 | 0.06 | 0.06 | 91 | 991.9 | |
| 20260906023619 | 59 | 0.0 | 0.0 | 0.04 | 0.04 | 0.04 | 91 | 991.9 | |
| 20260906022622 | 60 | 0.0 | 1.0 | 0.02 | 0.02 | 0.02 | 90 | 991.9 | |
| 20260906021619 | 60 | 0.0 | 1.0 | 0.01 | 0.01 | 0.01 | 90 | 991.8 | |
| 20260906020619 | 60 | 0.0 | 2.0 | 0.00 | 0.00 | 0.00 | 89 | 991.7 | |
| 20260906015619 | 61 | 0.0 | 2.0 | 0.00 | 0.00 | 0.00 | 89 | 991.7 | |
| 20260906014619 | 61 | 0.0 | 0.0 | 0.00 | 0.00 | 0.00 | 87 | 991.7 | |
| 20260906013619 | 61 | 113 | 1.0 | 3.0 | 0.00 | 0.00 | 0.00 | 87 | 991.6 |
| 20260906012621 | 61 | 0.0 | 0.0 | 0.00 | 0.00 | 0.00 | 86 | 991.5 | |
| 20260906011722 | 62 | 0.0 | 3.0 | 0.00 | 0.00 | 0.00 | 86 | 991.5 | |
| 20260906011021 | 62 | 113 | 1.0 | 3.0 | 0.00 | 0.00 | 0.00 | 85 | 991.5 |
| 20260906010019 | 62 | 0.0 | 2.0 | 0.00 | 0.00 | 0.00 | 84 | 991.5 | |
| 20260906005019 | 62 | 0.0 | 0.0 | 0.00 | 0.00 | 0.00 | 84 | 991.4 | |
| 20260906004021 | 63 | 90 | 1.0 | 3.0 | 0.00 | 0.00 | 0.00 | 83 | 991.2 |
| 20260906003019 | 63 | 90 | 4.0 | 9.0 | 0.00 | 0.00 | 0.00 | 82 | 991.1 |
| 20260906002021 | 64 | 90 | 1.0 | 6.0 | 0.00 | 0.00 | 0.00 | 80 | 991.1 |
| 20260906001019 | 65 | 45 | 1.0 | 3.0 | 0.00 | 0.00 | 0.00 | 79 | 991.1 |
| 20260906000019 | 66 | 68 | 3.0 | 6.0 | 0.00 | 0.00 | 0.00 | 78 | 990.8 |
| 20260905235018 | 66 | 0.0 | 1.0 | 0.00 | 0.00 | 0.00 | 77 | 990.7 | |
| 20260905234019 | 66 | 0 | 1.0 | 5.0 | 0.00 | 0.00 | 0.00 | 76 | 990.6 |
| 20260905233019 | 67 | 0.0 | 2.0 | 0.00 | 0.00 | 0.00 | 76 | 990.6 | |
| 20260905232019 | 67 | 338 | 1.0 | 3.0 | 0.00 | 0.00 | 0.00 | 76 | 990.5 |
| 20260905231019 | 68 | 113 | 1.0 | 3.0 | 0.00 | 0.00 | 0.00 | 76 | 990.4 |
| 20260905230021 | 68 | 0.0 | 1.0 | 0.00 | 0.00 | 0.00 | 74 | 990.3 | |
| 20260905225019 | 69 | 0.0 | 0.0 | 0.00 | 0.00 | 0.00 | 75 | 990.4 | |
| 20260905224019 | 69 | 0.0 | 0.0 | 0.00 | 0.00 | 0.00 | 73 | 990.3 | |
| 20260905223019 | 70 | 0.0 | 0.0 | 0.00 | 0.00 | 0.00 | 72 | 990.1 | |
| 20260905222019 | 70 | 0.0 | 1.0 | 0.00 | 0.00 | 0.00 | 71 | 990.0 | |
| 20260905221018 | 71 | 315 | 1.0 | 2.0 | 0.00 | 0.00 | 0.00 | 68 | 990.2 |
| 20260905220019 | 71 | 293 | 1.0 | 3.0 | 0.00 | 0.00 | 0.00 | 69 | 990.2 |
| 20260905215018 | 72 | 270 | 1.0 | 6.0 | 0.00 | 0.00 | 0.00 | 67 | 990.1 |
| 20260905214018 | 72 | 293 | 2.0 | 8.0 | 0.00 | 0.00 | 0.00 | 66 | 990.0 |
| 20260905213019 | 72 | 315 | 1.0 | 4.0 | 0.00 | 0.00 | 0.00 | 67 | 989.9 |
| 20260905212018 | 72 | 248 | 1.0 | 4.0 | 0.00 | 0.00 | 0.00 | 66 | 989.7 |
| 20260905211019 | 72 | 113 | 1.0 | 3.0 | 0.00 | 0.00 | 0.00 | 66 | 989.7 |
| 20260905210019 | 71 | 338 | 2.0 | 3.0 | 0.00 | 0.00 | 0.00 | 69 | 989.7 |
| 20260905205019 | 71 | 315 | 2.0 | 3.0 | 0.00 | 0.00 | 0.00 | 67 | 989.7 |
| 20260905204019 | 72 | 23 | 1.0 | 2.0 | 0.00 | 0.00 | 0.00 | 66 | 989.7 |
| 20260905203018 | 71 | 68 | 1.0 | 5.0 | 0.00 | 0.00 | 0.00 | 69 | 989.6 |
| 20260905202019 | 70 | 0.0 | 0.0 | 0.00 | 0.00 | 0.00 | 70 | 989.5 | |
| 20260905201018 | 70 | 315 | 1.0 | 3.0 | 0.00 | 0.00 | 0.00 | 70 | 989.4 |
| 20260905200018 | 71 | 68 | 1.0 | 3.0 | 0.00 | 0.00 | 0.00 | 69 | 989.4 |
| 20260905195020 | 71 | 338 | 1.0 | 4.0 | 0.00 | 0.00 | 0.00 | 68 | 989.4 |
| 20260905194019 | 71 | 315 | 3.0 | 8.0 | 0.00 | 0.00 | 0.00 | 67 | 989.4 |
| 20260905193018 | 71 | 45 | 1.0 | 4.0 | 0.00 | 0.00 | 0.00 | 68 | 989.4 |
| 20260905192019 | 71 | 113 | 1.0 | 4.0 | 0.00 | 0.00 | 0.00 | 68 | 989.4 |
| 20260905191019 | 71 | 68 | 2.0 | 7.0 | 0.00 | 0.00 | 0.00 | 66 | 989.4 |
| 20260905190018 | 72 | 113 | 2.0 | 4.0 | 0.00 | 0.00 | 0.00 | 66 | 989.4 |
| 20260905185019 | 73 | 0 | 1.0 | 4.0 | 0.00 | 0.00 | 0.00 | 64 | 989.5 |
| 20260905184122 | 74 | 45 | 1.0 | 4.0 | 0.00 | 0.00 | 0.00 | 63 | 989.3 |
| 20260905183318 | 73 | 0 | 2.0 | 4.0 | 0.00 | 0.00 | 0.00 | 63 | 989.3 |
| 20260905182318 | 73 | 23 | 4.0 | 9.0 | 0.00 | 0.00 | 0.00 | 63 | 989.3 |
| 20260905181319 | 74 | 225 | 3.0 | 13.0 | 0.00 | 0.00 | 0.00 | 62 | 989.4 |
| 20260905180319 | 73 | 293 | 2.0 | 5.0 | 0.00 | 0.00 | 0.00 | 64 | 989.4 |
| 20260905175318 | 74 | 270 | 3.0 | 7.0 | 0.00 | 0.00 | 0.00 | 66 | 989.5 |
| 20260905174319 | 73 | 158 | 2.0 | 4.0 | 0.00 | 0.00 | 0.00 | 67 | 989.5 |
| 20260905173319 | 72 | 315 | 2.0 | 7.0 | 0.00 | 0.00 | 0.00 | 68 | 989.5 |
| 20260905172319 | 71 | 315 | 4.0 | 6.0 | 0.00 | 0.00 | 0.00 | 69 | 989.3 |
| 20260905171318 | 71 | 315 | 2.0 | 4.0 | 0.00 | 0.00 | 0.00 | 69 | 989.3 |
| 20260905170318 | 71 | 0.0 | 2.0 | 0.00 | 0.00 | 0.00 | 69 | 989.3 | |
| 20260905165321 | 71 | 270 | 1.0 | 3.0 | 0.00 | 0.00 | 0.00 | 67 | 989.3 |
| 20260905164318 | 71 | 0.0 | 0.0 | 0.00 | 0.00 | 0.00 | 68 | 989.4 | |
| 20260905163318 | 72 | 338 | 3.0 | 10.0 | 0.00 | 0.00 | 0.00 | 66 | 989.4 |
| 20260905162319 | 72 | 315 | 3.0 | 5.0 | 0.00 | 0.00 | 0.00 | 68 | 989.6 |
| 20260905161319 | 72 | 0 | 4.0 | 8.0 | 0.00 | 0.00 | 0.00 | 70 | 989.5 |
| 20260905160320 | 72 | 45 | 1.0 | 5.0 | 0.00 | 0.00 | 0.00 | 69 | 989.6 |
| 20260905155318 | 71 | 315 | 2.0 | 5.0 | 0.00 | 0.00 | 0.00 | 72 | 989.6 |
| 20260905154318 | 70 | 45 | 2.0 | 5.0 | 0.00 | 0.00 | 0.00 | 73 | 989.7 |
| 20260905153319 | 69 | 90 | 2.0 | 4.0 | 0.00 | 0.00 | 0.00 | 73 | 989.7 |
| 20260905152318 | 69 | 315 | 2.0 | 6.0 | 0.00 | 0.00 | 0.00 | 72 | 989.7 |
| 20260905151318 | 69 | 315 | 1.0 | 3.0 | 0.00 | 0.00 | 0.00 | 71 | 989.7 |
| 20260905150321 | 69 | 90 | 2.0 | 6.0 | 0.00 | 0.00 | 0.00 | 72 | 989.6 |
| 20260905145320 | 70 | 68 | 2.0 | 3.0 | 0.00 | 0.00 | 0.00 | 70 | 989.7 |
| 20260905144318 | 69 | 0 | 2.0 | 5.0 | 0.00 | 0.00 | 0.00 | 74 | 989.7 |
| 20260905143318 | 69 | 45 | 3.0 | 9.0 | 0.00 | 0.00 | 0.00 | 74 | 989.7 |
| 20260905142319 | 68 | 270 | 4.0 | 9.0 | 0.00 | 0.00 | 0.00 | 77 | 989.8 |
| 20260905141320 | 68 | 315 | 4.0 | 10.0 | 0.00 | 0.00 | 0.00 | 80 | 989.8 |
| 20260905140318 | 67 | 315 | 1.0 | 3.0 | 0.00 | 0.00 | 0.00 | 81 | 989.8 |
| 20260905135319 | 66 | 45 | 2.0 | 4.0 | 0.00 | 0.00 | 0.00 | 83 | 989.8 |
| 20260905134318 | 65 | 0.0 | 3.0 | 0.00 | 0.00 | 0.00 | 84 | 989.8 | |
| 20260905133327 | 64 | 338 | 1.0 | 2.0 | 0.00 | 0.00 | 0.00 | 85 | 989.6 |
| 20260905132320 | 64 | 0.0 | 0.0 | 0.00 | 0.00 | 0.00 | 86 | 989.5 | |
| 20260905131320 | 64 | 0.0 | 0.0 | 0.00 | 0.00 | 0.00 | 86 | 989.4 | |
| 20260905130318 | 64 | 23 | 3.0 | 5.0 | 0.00 | 0.00 | 0.00 | 86 | 989.5 |
| 20260905125320 | 63 | 0.0 | 2.0 | 0.00 | 0.00 | 0.00 | 90 | 989.4 | |
| 20260905124320 | 62 | 0 | 1.0 | 2.0 | 0.00 | 0.00 | 0.00 | 90 | 989.3 |
| 20260905123320 | 62 | 0.0 | 0.0 | 0.00 | 0.00 | 0.00 | 89 | 989.4 | |
| 20260905122321 | 61 | 0.0 | 3.0 | 0.00 | 0.00 | 0.00 | 90 | 989.2 | |
| 20260905121320 | 61 | 0.0 | 0.0 | 0.00 | 0.00 | 0.00 | 90 | 989.1 | |
| 20260905120318 | 61 | 0.0 | 0.0 | 0.00 | 0.00 | 0.00 | 90 | 989.2 |